Location: Dammartin
(48.9032°N, 1.6195°E)
Time: 21:54:52
(UTC+00:00)

Cosmos 1844 Rocket - Pass Details

Date: 03 February 2023
Orbit: 826 x 843 km, 71.0° (Epoch: 21 March)

Event Time Altitude Azimuth Distance (km) Brightness Sun altitude
Rises 19:23:36 0° 324° (NW) 3,375 6.4 -24.8°
Reaches altitude 10° 19:26:18 10° 314° (NW) 2,437 5.7 -25.2°
Maximum altitude 19:31:03 29° 256° (WSW) 1,464 4.5 -26.0°
Drops below altitude 10° 19:35:46 10° 197° (SSW) 2,422 5.2 -26.8°
Sets 19:38:27 0° 187° (S) 3,352 5.8 -27.2°
